| time (UTC) | temp F | wind direction | speed MPH | gust MPH | rain 1hr in | rain 24hr in | rain mn in | humidity % | barometer mb |
| 20260509130555 | 51 | 162 | 0.0 | 1.0 | 0.00 | 0.00 | 0.00 | 88 | 1014.2 |
| 20260509130055 | 51 | 156 | 0.0 | 1.0 | 0.00 | 0.00 | 0.00 | 88 | 1014.2 |
| 20260509125554 | 51 | 156 | 0.0 | 1.0 | 0.00 | 0.00 | 0.00 | 88 | 1014.2 |
| 20260509125053 | 51 | 156 | 0.0 | 2.0 | 0.00 | 0.00 | 0.00 | 88 | 1014.1 |
| 20260509124554 | 51 | 156 | 0.0 | 3.0 | 0.00 | 0.00 | 0.00 | 88 | 1014.0 |
| 20260509124153 | 51 | 156 | 0.0 | 3.0 | 0.00 | 0.00 | 0.00 | 88 | 1014.0 |
| 20260509123552 | 51 | 156 | 0.0 | 0.0 | 0.00 | 0.00 | 0.00 | 88 | 1014.1 |
| 20260509123054 | 51 | 156 | 0.0 | 0.0 | 0.00 | 0.00 | 0.00 | 88 | 1014.2 |
| 20260509122551 | 51 | 156 | 0.0 | 1.0 | 0.00 | 0.00 | 0.00 | 88 | 1014.2 |
| 20260509122051 | 51 | 156 | 0.0 | 1.0 | 0.00 | 0.00 | 0.00 | 88 | 1014.3 |
| 20260509121553 | 51 | 156 | 0.0 | 1.0 | 0.00 | 0.00 | 0.00 | 88 | 1014.3 |
| 20260509121052 | 51 | 156 | 0.0 | 1.0 | 0.00 | 0.00 | 0.00 | 88 | 1014.3 |
| 20260509120550 | 51 | 156 | 0.0 | 0.0 | 0.00 | 0.00 | 0.00 | 88 | 1014.3 |
| 20260509120049 | 51 | 156 | 0.0 | 2.0 | 0.00 | 0.00 | 0.00 | 88 | 1014.3 |
| 20260509115547 | 51 | 156 | 0.0 | 2.0 | 0.00 | 0.00 | 0.00 | 87 | 1014.3 |
| 20260509115048 | 51 | 156 | 0.0 | 2.0 | 0.00 | 0.00 | 0.00 | 87 | 1014.3 |
| 20260509114547 | 51 | 156 | 0.0 | 3.0 | 0.00 | 0.00 | 0.00 | 87 | 1014.4 |
| 20260509114046 | 52 | 156 | 0.0 | 3.0 | 0.00 | 0.00 | 0.00 | 87 | 1014.4 |
| 20260509113547 | 52 | 156 | 0.0 | 2.0 | 0.00 | 0.00 | 0.00 | 87 | 1014.5 |
| 20260509113051 | 52 | 156 | 0.0 | 2.0 | 0.00 | 0.00 | 0.00 | 87 | 1014.4 |
| 20260509112545 | 52 | 156 | 0.0 | 2.0 | 0.00 | 0.00 | 0.00 | 87 | 1014.5 |
| 20260509112046 | 52 | 156 | 0.0 | 0.0 | 0.00 | 0.00 | 0.00 | 87 | 1014.5 |
| 20260509111545 | 52 | 156 | 0.0 | 2.0 | 0.00 | 0.00 | 0.00 | 87 | 1014.5 |
| 20260509111045 | 52 | 156 | 0.0 | 2.0 | 0.00 | 0.00 | 0.00 | 87 | 1014.6 |
| 20260509110548 | 52 | 156 | 0.0 | 1.0 | 0.00 | 0.00 | 0.00 | 87 | 1014.5 |
| 20260509110044 | 52 | 156 | 0.0 | 3.0 | 0.00 | 0.00 | 0.00 | 87 | 1014.5 |
| 20260509105542 | 52 | 156 | 0.0 | 3.0 | 0.00 | 0.00 | 0.00 | 87 | 1014.5 |
| 20260509105042 | 52 | 156 | 0.0 | 3.0 | 0.00 | 0.00 | 0.00 | 87 | 1014.5 |
| 20260509104541 | 52 | 158 | 0.0 | 3.0 | 0.00 | 0.00 | 0.00 | 87 | 1014.6 |
| 20260509104042 | 52 | 185 | 0.0 | 2.0 | 0.00 | 0.00 | 0.00 | 87 | 1014.7 |
| 20260509103542 | 52 | 185 | 0.0 | 3.0 | 0.00 | 0.00 | 0.00 | 87 | 1014.6 |
| 20260509103040 | 52 | 185 | 1.0 | 3.0 | 0.00 | 0.00 | 0.00 | 87 | 1014.8 |
| 20260509102540 | 52 | 185 | 0.0 | 3.0 | 0.00 | 0.00 | 0.00 | 87 | 1014.8 |
| 20260509102039 | 52 | 185 | 1.0 | 3.0 | 0.00 | 0.00 | 0.00 | 87 | 1014.8 |
| 20260509101549 | 52 | 185 | 0.0 | 0.0 | 0.00 | 0.00 | 0.00 | 87 | 1014.8 |
| 20260509101039 | 52 | 185 | 0.0 | 0.0 | 0.00 | 0.00 | 0.00 | 87 | 1014.8 |
| 20260509100540 | 52 | 185 | 0.0 | 2.0 | 0.00 | 0.00 | 0.00 | 87 | 1014.8 |
| 20260509100039 | 52 | 185 | 0.0 | 2.0 | 0.00 | 0.00 | 0.00 | 87 | 1014.8 |
| 20260509095538 | 52 | 185 | 0.0 | 2.0 | 0.00 | 0.00 | 0.00 | 87 | 1014.8 |
| 20260509095038 | 52 | 185 | 0.0 | 1.0 | 0.00 | 0.00 | 0.00 | 87 | 1014.7 |
| 20260509094537 | 52 | 185 | 0.0 | 3.0 | 0.00 | 0.00 | 0.00 | 87 | 1014.8 |
| 20260509094037 | 52 | 185 | 0.0 | 3.0 | 0.00 | 0.00 | 0.00 | 87 | 1014.8 |
| 20260509093537 | 52 | 185 | 0.0 | 3.0 | 0.00 | 0.00 | 0.00 | 87 | 1014.8 |
| 20260509093036 | 52 | 185 | 1.0 | 3.0 | 0.00 | 0.00 | 0.00 | 87 | 1014.9 |
| 20260509092536 | 52 | 185 | 0.0 | 4.0 | 0.00 | 0.00 | 0.00 | 86 | 1014.9 |
| 20260509092034 | 52 | 185 | 2.0 | 4.0 | 0.00 | 0.00 | 0.00 | 86 | 1014.8 |
| 20260509091533 | 52 | 244 | 1.0 | 4.0 | 0.00 | 0.00 | 0.00 | 86 | 1015.0 |
| 20260509091036 | 52 | 269 | 0.0 | 3.0 | 0.00 | 0.00 | 0.00 | 86 | 1015.0 |
| 20260509090533 | 52 | 269 | 0.0 | 3.0 | 0.00 | 0.00 | 0.00 | 86 | 1015.1 |
| 20260509090033 | 52 | 269 | 0.0 | 3.0 | 0.00 | 0.00 | 0.00 | 86 | 1015.0 |
| 20260509085531 | 52 | 269 | 0.0 | 4.0 | 0.00 | 0.00 | 0.00 | 86 | 1015.0 |
| 20260509085031 | 52 | 269 | 0.0 | 5.0 | 0.00 | 0.00 | 0.00 | 86 | 1015.0 |
| 20260509084530 | 52 | 226 | 1.0 | 3.0 | 0.00 | 0.00 | 0.00 | 86 | 1015.1 |
| 20260509084030 | 52 | 218 | 0.0 | 2.0 | 0.00 | 0.00 | 0.00 | 86 | 1015.1 |
| 20260509083532 | 52 | 218 | 0.0 | 2.0 | 0.00 | 0.00 | 0.00 | 86 | 1015.1 |
| 20260509083031 | 52 | 218 | 0.0 | 2.0 | 0.00 | 0.00 | 0.00 | 86 | 1015.1 |
| 20260509082529 | 52 | 218 | 0.0 | 1.0 | 0.00 | 0.00 | 0.00 | 86 | 1015.2 |
| 20260509082028 | 52 | 218 | 0.0 | 3.0 | 0.00 | 0.00 | 0.00 | 86 | 1015.2 |
| 20260509081532 | 52 | 218 | 0.0 | 3.0 | 0.00 | 0.00 | 0.00 | 86 | 1015.3 |
| 20260509081028 | 53 | 156 | 0.0 | 2.0 | 0.00 | 0.00 | 0.00 | 86 | 1015.3 |
| 20260509080629 | 53 | 156 | 0.0 | 2.0 | 0.00 | 0.00 | 0.00 | 86 | 1015.3 |
| 20260509080025 | 53 | 156 | 0.0 | 4.0 | 0.00 | 0.00 | 0.00 | 86 | 1015.3 |
| 20260509075525 | 53 | 156 | 1.0 | 4.0 | 0.00 | 0.00 | 0.00 | 85 | 1015.4 |
| 20260509075025 | 53 | 78 | 0.0 | 2.0 | 0.00 | 0.00 | 0.00 | 85 | 1015.4 |
| 20260509074525 | 52 | 65 | 0.0 | 2.0 | 0.00 | 0.00 | 0.00 | 85 | 1015.4 |
| 20260509074024 | 52 | 65 | 0.0 | 3.0 | 0.00 | 0.00 | 0.00 | 85 | 1015.5 |
| 20260509073524 | 52 | 65 | 0.0 | 3.0 | 0.00 | 0.00 | 0.00 | 85 | 1015.4 |
| 20260509073023 | 52 | 65 | 0.0 | 0.0 | 0.00 | 0.00 | 0.00 | 85 | 1015.5 |
| 20260509072523 | 52 | 65 | 0.0 | 0.0 | 0.00 | 0.00 | 0.00 | 85 | 1015.5 |
| 20260509072026 | 52 | 65 | 0.0 | 0.0 | 0.00 | 0.00 | 0.00 | 85 | 1015.6 |
| 20260509071522 | 52 | 65 | 0.0 | 0.0 | 0.00 | 0.00 | 0.00 | 85 | 1015.5 |
| 20260509071023 | 52 | 65 | 0.0 | 0.0 | 0.00 | 0.00 | 0.00 | 84 | 1015.5 |
| 20260509070524 | 52 | 65 | 0.0 | 0.0 | 0.00 | 0.00 | 0.00 | 84 | 1015.5 |
| 20260509070019 | 52 | 65 | 0.0 | 0.0 | 0.00 | 0.00 | 0.00 | 84 | 1015.6 |
| 20260509065519 | 52 | 65 | 0.0 | 0.0 | 0.00 | 0.00 | 0.00 | 84 | 1015.6 |
| 20260509065019 | 52 | 65 | 0.0 | 2.0 | 0.00 | 0.00 | 0.00 | 84 | 1015.6 |
| 20260509064519 | 52 | 65 | 0.0 | 1.0 | 0.00 | 0.00 | 0.00 | 83 | 1015.6 |
| 20260509064021 | 52 | 65 | 0.0 | 0.0 | 0.00 | 0.00 | 0.00 | 83 | 1015.6 |
| 20260509063518 | 52 | 65 | 0.0 | 0.0 | 0.00 | 0.00 | 0.00 | 83 | 1015.7 |
| 20260509063018 | 53 | 65 | 0.0 | 0.0 | 0.00 | 0.00 | 0.00 | 83 | 1015.9 |
| 20260509062519 | 53 | 65 | 0.0 | 0.0 | 0.00 | 0.00 | 0.00 | 83 | 1015.9 |
| 20260509062019 | 53 | 65 | 0.0 | 0.0 | 0.00 | 0.00 | 0.00 | 83 | 1016.0 |
| 20260509061519 | 53 | 65 | 0.0 | 0.0 | 0.00 | 0.00 | 0.00 | 83 | 1015.8 |
| 20260509061018 | 53 | 65 | 0.0 | 0.0 | 0.00 | 0.00 | 0.00 | 83 | 1015.9 |
| 20260509060518 | 53 | 65 | 0.0 | 0.0 | 0.00 | 0.00 | 0.00 | 82 | 1015.8 |
| 20260509060018 | 53 | 65 | 0.0 | 0.0 | 0.00 | 0.00 | 0.00 | 82 | 1015.7 |
| 20260509055518 | 53 | 65 | 0.0 | 0.0 | 0.00 | 0.00 | 0.00 | 82 | 1015.7 |
| 20260509055018 | 53 | 65 | 0.0 | 2.0 | 0.00 | 0.00 | 0.00 | 82 | 1015.7 |
| 20260509054517 | 53 | 65 | 0.0 | 2.0 | 0.00 | 0.00 | 0.00 | 82 | 1015.8 |
| 20260509054017 | 53 | 65 | 0.0 | 2.0 | 0.00 | 0.00 | 0.00 | 82 | 1015.8 |
| 20260509053517 | 53 | 65 | 0.0 | 1.0 | 0.00 | 0.00 | 0.00 | 82 | 1015.8 |
| 20260509053016 | 54 | 65 | 0.0 | 1.0 | 0.00 | 0.00 | 0.00 | 81 | 1015.8 |
| 20260509052516 | 54 | 65 | 0.0 | 1.0 | 0.00 | 0.00 | 0.00 | 81 | 1015.7 |
| 20260509052016 | 54 | 65 | 0.0 | 3.0 | 0.00 | 0.00 | 0.00 | 81 | 1015.7 |
| 20260509051518 | 54 | 65 | 0.0 | 3.0 | 0.00 | 0.00 | 0.00 | 81 | 1015.7 |
| 20260509051017 | 54 | 65 | 0.0 | 3.0 | 0.00 | 0.00 | 0.00 | 81 | 1015.7 |
| 20260509050520 | 54 | 40 | 0.0 | 4.0 | 0.00 | 0.00 | 0.00 | 81 | 1015.7 |
| 20260509050010 | 54 | 40 | 0.0 | 7.0 | 0.00 | 0.00 | 0.00 | 80 | 1015.7 |
| 20260509045509 | 55 | 88 | 1.0 | 6.0 | 0.00 | 0.00 | 0.00 | 80 | 1015.7 |
| 20260509045009 | 55 | 52 | 1.0 | 5.0 | 0.00 | 0.00 | 0.00 | 80 | 1015.6 |
| 20260509044509 | 55 | 49 | 1.0 | 6.0 | 0.00 | 0.00 | 0.00 | 79 | 1015.6 |
| 20260509044009 | 55 | 42 | 0.0 | 7.0 | 0.00 | 0.00 | 0.00 | 79 | 1015.6 |
| 20260509043516 | 55 | 42 | 2.0 | 7.0 | 0.00 | 0.00 | 0.00 | 79 | 1015.5 |
| 20260509043009 | 55 | 54 | 2.0 | 6.0 | 0.00 | 0.00 | 0.00 | 79 | 1015.6 |
| 20260509042509 | 55 | 40 | 2.0 | 6.0 | 0.00 | 0.00 | 0.00 | 78 | 1015.5 |
| 20260509042010 | 55 | 61 | 0.0 | 6.0 | 0.00 | 0.00 | 0.00 | 78 | 1015.4 |
| 20260509041508 | 56 | 44 | 2.0 | 6.0 | 0.00 | 0.00 | 0.00 | 78 | 1015.5 |
| 20260509041009 | 56 | 58 | 2.0 | 8.0 | 0.00 | 0.00 | 0.00 | 78 | 1015.3 |
| 20260509040509 | 56 | 41 | 3.0 | 8.0 | 0.00 | 0.00 | 0.00 | 77 | 1015.2 |
| 20260509040047 | 56 | 48 | 1.0 | 6.0 | 0.00 | 0.00 | 0.00 | 77 | 1015.2 |
| 20260509035546 | 56 | 36 | 2.0 | 6.0 | 0.00 | 0.00 | 0.00 | 77 | 1015.2 |
| 20260509035046 | 57 | 58 | 1.0 | 6.0 | 0.00 | 0.00 | 0.00 | 76 | 1015.2 |
| 20260509034552 | 57 | 43 | 2.0 | 6.0 | 0.00 | 0.00 | 0.00 | 76 | 1015.1 |
| 20260509034045 | 57 | 53 | 1.0 | 6.0 | 0.00 | 0.00 | 0.00 | 76 | 1015.1 |
| 20260509033546 | 57 | 37 | 3.0 | 7.0 | 0.00 | 0.00 | 0.00 | 75 | 1015.1 |
| 20260509033052 | 58 | 33 | 3.0 | 7.0 | 0.00 | 0.00 | 0.00 | 75 | 1015.0 |
| 20260509032546 | 58 | 23 | 2.0 | 7.0 | 0.00 | 0.00 | 0.00 | 74 | 1015.0 |
| 20260509032047 | 58 | 29 | 1.0 | 7.0 | 0.00 | 0.00 | 0.00 | 74 | 1015.0 |
| 20260509031545 | 58 | 48 | 2.0 | 7.0 | 0.00 | 0.00 | 0.00 | 74 | 1015.0 |
| 20260509031045 | 59 | 49 | 2.0 | 7.0 | 0.00 | 0.00 | 0.00 | 73 | 1014.8 |
| 20260509030545 | 59 | 2 | 3.0 | 7.0 | 0.00 | 0.00 | 0.00 | 73 | 1014.7 |
| 20260509030039 | 59 | 39 | 2.0 | 9.0 | 0.00 | 0.00 | 0.00 | 72 | 1014.8 |
| 20260509025538 | 60 | 66 | 2.0 | 9.0 | 0.00 | 0.00 | 0.00 | 72 | 1014.7 |
| 20260509025039 | 60 | 69 | 1.0 | 8.0 | 0.00 | 0.00 | 0.00 | 71 | 1014.7 |
| 20260509024539 | 61 | 59 | 1.0 | 7.0 | 0.00 | 0.00 | 0.00 | 71 | 1014.6 |
| 20260509024038 | 61 | 81 | 1.0 | 6.0 | 0.00 | 0.00 | 0.00 | 70 | 1014.5 |
| 20260509023538 | 61 | 33 | 3.0 | 7.0 | 0.00 | 0.00 | 0.00 | 70 | 1014.5 |
| 20260509023037 | 62 | 44 | 2.0 | 7.0 | 0.00 | 0.00 | 0.00 | 69 | 1014.5 |
| 20260509022537 | 62 | 29 | 2.0 | 6.0 | 0.00 | 0.00 | 0.00 | 69 | 1014.5 |
| 20260509022037 | 62 | 41 | 2.0 | 6.0 | 0.00 | 0.00 | 0.00 | 69 | 1014.3 |
| 20260509021540 | 63 | 39 | 2.0 | 6.0 | 0.00 | 0.00 | 0.00 | 68 | 1014.3 |
| 20260509021036 | 63 | 32 | 2.0 | 6.0 | 0.00 | 0.00 | 0.00 | 68 | 1014.2 |
| 20260509020536 | 64 | 37 | 2.0 | 6.0 | 0.00 | 0.00 | 0.00 | 68 | 1014.3 |
| 20260509020020 | 64 | 37 | 1.0 | 6.0 | 0.00 | 0.00 | 0.00 | 67 | 1014.3 |
| 20260509015519 | 65 | 38 | 2.0 | 7.0 | 0.00 | 0.00 | 0.00 | 67 | 1014.2 |
| 20260509015018 | 65 | 38 | 2.0 | 7.0 | 0.00 | 0.00 | 0.00 | 66 | 1014.3 |
| 20260509014519 | 65 | 33 | 0.0 | 6.0 | 0.00 | 0.00 | 0.00 | 66 | 1014.3 |
| 20260509014018 | 66 | 54 | 2.0 | 6.0 | 0.00 | 0.00 | 0.00 | 65 | 1014.2 |
| 20260509013522 | 66 | 32 | 2.0 | 7.0 | 0.00 | 0.00 | 0.00 | 65 | 1014.3 |
| 20260509013018 | 67 | 20 | 1.0 | 5.0 | 0.00 | 0.00 | 0.00 | 65 | 1014.2 |
| 20260509012518 | 67 | 40 | 1.0 | 5.0 | 0.00 | 0.00 | 0.00 | 65 | 1014.2 |
| 20260509012018 | 67 | 52 | 1.0 | 5.0 | 0.00 | 0.00 | 0.00 | 64 | 1014.2 |
| 20260509011518 | 67 | 55 | 1.0 | 6.0 | 0.00 | 0.00 | 0.00 | 64 | 1014.2 |
| 20260509011019 | 68 | 13 | 0.0 | 6.0 | 0.00 | 0.00 | 0.00 | 64 | 1014.1 |
| 20260509010517 | 68 | 24 | 0.0 | 5.0 | 0.00 | 0.00 | 0.00 | 64 | 1014.1 |
| 20260509010104 | 68 | 29 | 1.0 | 6.0 | 0.00 | 0.00 | 0.00 | 64 | 1014.1 |
| 20260509005556 | 68 | 30 | 0.0 | 6.0 | 0.00 | 0.00 | 0.00 | 64 | 1014.2 |
| 20260509005056 | 69 | 25 | 0.0 | 4.0 | 0.00 | 0.00 | 0.00 | 64 | 1014.2 |
| 20260509004620 | 69 | 45 | 0.0 | 4.0 | 0.00 | 0.00 | 0.00 | 64 | 1014.2 |
| 20260509004055 | 69 | 33 | 0.0 | 6.0 | 0.00 | 0.00 | 0.00 | 64 | 1014.3 |
| 20260509003557 | 69 | 16 | 0.0 | 5.0 | 0.00 | 0.00 | 0.00 | 64 | 1014.2 |
| 20260509003054 | 69 | 30 | 0.0 | 5.0 | 0.00 | 0.00 | 0.00 | 64 | 1014.1 |
| 20260509002553 | 69 | 40 | 0.0 | 7.0 | 0.00 | 0.00 | 0.00 | 64 | 1014.2 |
| 20260509002053 | 69 | 17 | 1.0 | 7.0 | 0.00 | 0.00 | 0.00 | 64 | 1014.3 |
| 20260509001555 | 69 | 301 | 1.0 | 7.0 | 0.00 | 0.00 | 0.00 | 64 | 1014.2 |
| 20260509001053 | 69 | 273 | 2.0 | 6.0 | 0.00 | 0.00 | 0.00 | 64 | 1014.3 |
| 20260509000552 | 69 | 252 | 2.0 | 9.0 | 0.00 | 0.00 | 0.00 | 63 | 1014.4 |
| 20260509000046 | 69 | 310 | 4.0 | 9.0 | 0.00 | 0.00 | 0.00 | 64 | 1014.4 |
| 20260508235545 | 69 | 262 | 0.0 | 6.0 | 0.00 | 0.00 | 0.00 | 63 | 1014.5 |
| 20260508235047 | 70 | 268 | 1.0 | 7.0 | 0.00 | 0.00 | 0.00 | 63 | 1014.4 |
| 20260508234544 | 70 | 304 | 2.0 | 8.0 | 0.00 | 0.00 | 0.00 | 63 | 1014.4 |
| 20260508234045 | 70 | 302 | 1.0 | 10.0 | 0.00 | 0.00 | 0.00 | 63 | 1014.4 |
| 20260508233547 | 70 | 272 | 3.0 | 10.0 | 0.00 | 0.00 | 0.00 | 63 | 1014.5 |
| 20260508233043 | 70 | 271 | 4.0 | 10.0 | 0.00 | 0.00 | 0.00 | 63 | 1014.5 |
| 20260508232541 | 70 | 270 | 3.0 | 10.0 | 0.00 | 0.00 | 0.00 | 64 | 1014.6 |
| 20260508232043 | 70 | 288 | 2.0 | 9.0 | 0.00 | 0.00 | 0.00 | 64 | 1014.6 |
| 20260508231541 | 71 | 282 | 6.0 | 9.0 | 0.00 | 0.00 | 0.00 | 63 | 1014.6 |
| 20260508231041 | 70 | 291 | 2.0 | 10.0 | 0.00 | 0.00 | 0.00 | 64 | 1014.6 |
| 20260508230541 | 70 | 266 | 4.0 | 10.0 | 0.00 | 0.00 | 0.00 | 64 | 1014.7 |
| 20260508230032 | 70 | 266 | 3.0 | 9.0 | 0.00 | 0.00 | 0.00 | 65 | 1014.7 |
| 20260508225532 | 70 | 276 | 2.0 | 10.0 | 0.00 | 0.00 | 0.00 | 64 | 1014.8 |
| 20260508225031 | 70 | 212 | 2.0 | 10.0 | 0.00 | 0.00 | 0.00 | 65 | 1014.9 |
| 20260508224535 | 69 | 248 | 1.0 | 8.0 | 0.00 | 0.00 | 0.00 | 65 | 1015.0 |
| 20260508224033 | 69 | 266 | 2.0 | 10.0 | 0.00 | 0.00 | 0.00 | 65 | 1015.0 |
| 20260508223529 | 69 | 253 | 2.0 | 10.0 | 0.00 | 0.00 | 0.00 | 65 | 1014.9 |
| 20260508223041 | 68 | 271 | 4.0 | 10.0 | 0.00 | 0.00 | 0.00 | 66 | 1015.1 |
| 20260508222525 | 68 | 226 | 1.0 | 7.0 | 0.00 | 0.00 | 0.00 | 66 | 1015.1 |
| 20260508222024 | 68 | 279 | 2.0 | 10.0 | 0.00 | 0.00 | 0.00 | 66 | 1015.2 |
| 20260508221523 | 68 | 256 | 4.0 | 10.0 | 0.00 | 0.00 | 0.00 | 66 | 1015.3 |
| 20260508221022 | 67 | 274 | 2.0 | 10.0 | 0.00 | 0.00 | 0.00 | 66 | 1015.3 |
| 20260508220520 | 67 | 242 | 3.0 | 10.0 | 0.00 | 0.00 | 0.00 | 66 | 1015.3 |
| 20260508220004 | 67 | 283 | 4.0 | 10.0 | 0.00 | 0.00 | 0.00 | 67 | 1015.5 |
| 20260508215603 | 67 | 208 | 3.0 | 11.0 | 0.00 | 0.00 | 0.00 | 66 | 1015.5 |
| 20260508215002 | 67 | 269 | 4.0 | 11.0 | 0.00 | 0.00 | 0.00 | 67 | 1015.6 |
| 20260508214614 | 66 | 212 | 4.0 | 13.0 | 0.00 | 0.00 | 0.00 | 67 | 1015.6 |
| 20260508214101 | 66 | 253 | 5.0 | 13.0 | 0.00 | 0.00 | 0.00 | 67 | 1015.6 |
| 20260508214001 | 66 | 280 | 6.0 | 13.0 | 0.00 | 0.00 | 0.00 | 67 | 1015.6 |
| 20260508213559 | 66 | 250 | 3.0 | 11.0 | 0.00 | 0.00 | 0.00 | 67 | 1015.7 |
| 20260508213106 | 66 | 261 | 7.0 | 12.0 | 0.00 | 0.00 | 0.00 | 66 | 1015.8 |
| 20260508212559 | 67 | 277 | 5.0 | 12.0 | 0.00 | 0.00 | 0.00 | 66 | 1015.7 |
| 20260508212059 | 67 | 264 | 4.0 | 12.0 | 0.00 | 0.00 | 0.00 | 66 | 1015.8 |
| 20260508211558 | 67 | 291 | 6.0 | 12.0 | 0.00 | 0.00 | 0.00 | 67 | 1015.8 |
| 20260508211057 | 67 | 275 | 6.0 | 10.0 | 0.00 | 0.00 | 0.00 | 67 | 1015.9 |
| 20260508210600 | 67 | 285 | 4.0 | 11.0 | 0.00 | 0.00 | 0.00 | 67 | 1016.0 |
| 20260508210053 | 66 | 272 | 4.0 | 12.0 | 0.00 | 0.00 | 0.00 | 67 | 1016.1 |
| 20260508205550 | 66 | 289 | 4.0 | 12.0 | 0.00 | 0.00 | 0.00 | 67 | 1016.1 |
| 20260508205049 | 66 | 263 | 7.0 | 12.0 | 0.00 | 0.00 | 0.00 | 66 | 1016.1 |
| 20260508204550 | 66 | 279 | 3.0 | 12.0 | 0.00 | 0.00 | 0.00 | 67 | 1016.3 |
| 20260508204047 | 66 | 263 | 3.0 | 11.0 | 0.00 | 0.00 | 0.00 | 67 | 1016.3 |
| 20260508203549 | 66 | 289 | 4.0 | 11.0 | 0.00 | 0.00 | 0.00 | 68 | 1016.4 |
| 20260508203047 | 65 | 288 | 3.0 | 11.0 | 0.00 | 0.00 | 0.00 | 68 | 1016.5 |
| 20260508202547 | 65 | 258 | 5.0 | 11.0 | 0.00 | 0.00 | 0.00 | 68 | 1016.5 |
| 20260508202047 | 65 | 280 | 4.0 | 12.0 | 0.00 | 0.00 | 0.00 | 68 | 1016.5 |
| 20260508201547 | 65 | 293 | 6.0 | 12.0 | 0.00 | 0.00 | 0.00 | 68 | 1016.5 |
| 20260508201047 | 65 | 285 | 4.0 | 12.0 | 0.00 | 0.00 | 0.00 | 69 | 1016.6 |
| 20260508200546 | 65 | 281 | 7.0 | 13.0 | 0.00 | 0.00 | 0.00 | 67 | 1016.6 |
| 20260508200023 | 66 | 306 | 5.0 | 13.0 | 0.00 | 0.00 | 0.00 | 68 | 1016.7 |
| 20260508195523 | 66 | 279 | 6.0 | 11.0 | 0.00 | 0.00 | 0.00 | 68 | 1016.6 |
| 20260508195024 | 66 | 266 | 3.0 | 14.0 | 0.00 | 0.00 | 0.00 | 68 | 1016.8 |
| 20260508194522 | 66 | 300 | 6.0 | 14.0 | 0.00 | 0.00 | 0.00 | 68 | 1016.8 |
| 20260508194023 | 66 | 304 | 5.0 | 11.0 | 0.00 | 0.00 | 0.00 | 69 | 1016.8 |
| 20260508193521 | 66 | 281 | 2.0 | 11.0 | 0.00 | 0.00 | 0.00 | 69 | 1016.8 |
| 20260508193021 | 66 | 285 | 6.0 | 11.0 | 0.00 | 0.00 | 0.00 | 69 | 1016.8 |
| 20260508192519 | 66 | 300 | 5.0 | 11.0 | 0.00 | 0.00 | 0.00 | 70 | 1016.9 |
| 20260508192018 | 65 | 262 | 3.0 | 10.0 | 0.00 | 0.00 | 0.00 | 71 | 1016.9 |
| 20260508191518 | 65 | 353 | 1.0 | 9.0 | 0.00 | 0.00 | 0.00 | 70 | 1017.0 |
| 20260508191016 | 65 | 275 | 0.0 | 10.0 | 0.00 | 0.00 | 0.00 | 71 | 1017.0 |
| 20260508190516 | 64 | 285 | 5.0 | 10.0 | 0.00 | 0.00 | 0.00 | 71 | 1017.1 |
| 20260508190021 | 64 | 300 | 5.0 | 10.0 | 0.00 | 0.00 | 0.00 | 71 | 1017.1 |
| 20260508185507 | 64 | 290 | 4.0 | 10.0 | 0.00 | 0.00 | 0.00 | 71 | 1017.2 |
| 20260508185005 | 65 | 310 | 6.0 | 10.0 | 0.00 | 0.00 | 0.00 | 72 | 1017.2 |
| 20260508184518 | 64 | 281 | 3.0 | 9.0 | 0.00 | 0.00 | 0.00 | 72 | 1017.3 |
| 20260508184007 | 65 | 303 | 5.0 | 9.0 | 0.00 | 0.00 | 0.00 | 71 | 1017.2 |
| 20260508183503 | 65 | 300 | 3.0 | 11.0 | 0.00 | 0.00 | 0.00 | 72 | 1017.3 |
| 20260508183002 | 64 | 283 | 5.0 | 11.0 | 0.00 | 0.00 | 0.00 | 73 | 1017.3 |
| 20260508182501 | 64 | 325 | 4.0 | 9.0 | 0.00 | 0.00 | 0.00 | 73 | 1017.3 |
| 20260508182059 | 64 | 264 | 3.0 | 9.0 | 0.00 | 0.00 | 0.00 | 74 | 1017.3 |
| 20260508181558 | 63 | 258 | 3.0 | 9.0 | 0.00 | 0.00 | 0.00 | 73 | 1017.4 |
| 20260508181101 | 63 | 282 | 6.0 | 11.0 | 0.00 | 0.00 | 0.00 | 74 | 1017.4 |
| 20260508180557 | 63 | 296 | 5.0 | 11.0 | 0.00 | 0.00 | 0.00 | 74 | 1017.4 |
| 20260508180058 | 63 | 265 | 0.0 | 9.0 | 0.00 | 0.00 | 0.00 | 75 | 1017.4 |
| 20260508175548 | 63 | 276 | 5.0 | 9.0 | 0.00 | 0.00 | 0.00 | 74 | 1017.3 |
| 20260508175046 | 63 | 271 | 3.0 | 8.0 | 0.00 | 0.00 | 0.00 | 74 | 1017.2 |
| 20260508174600 | 63 | 281 | 0.0 | 5.0 | 0.00 | 0.00 | 0.00 | 75 | 1017.3 |
| 20260508174044 | 63 | 251 | 0.0 | 6.0 | 0.00 | 0.00 | 0.00 | 76 | 1017.3 |
| 20260508173542 | 62 | 296 | 2.0 | 7.0 | 0.00 | 0.00 | 0.00 | 77 | 1017.5 |
| 20260508173041 | 62 | 29 | 2.0 | 7.0 | 0.00 | 0.00 | 0.00 | 78 | 1017.5 |
| 20260508172539 | 61 | 309 | 4.0 | 7.0 | 0.00 | 0.00 | 0.00 | 78 | 1017.6 |
| 20260508172041 | 61 | 289 | 2.0 | 8.0 | 0.00 | 0.00 | 0.00 | 78 | 1017.7 |
| 20260508171538 | 61 | 306 | 3.0 | 8.0 | 0.00 | 0.00 | 0.00 | 79 | 1017.7 |
| 20260508171036 | 61 | 319 | 1.0 | 8.0 | 0.00 | 0.00 | 0.00 | 80 | 1017.7 |
| 20260508170535 | 60 | 293 | 0.0 | 7.0 | 0.00 | 0.00 | 0.00 | 81 | 1017.6 |
| 20260508170034 | 60 | 329 | 4.0 | 7.0 | 0.00 | 0.00 | 0.00 | 82 | 1017.7 |
| 20260508165526 | 59 | 287 | 0.0 | 4.0 | 0.00 | 0.00 | 0.00 | 83 | 1017.7 |
| 20260508165024 | 59 | 316 | 1.0 | 6.0 | 0.00 | 0.00 | 0.00 | 84 | 1017.7 |
| 20260508164534 | 58 | 333 | 2.0 | 6.0 | 0.00 | 0.00 | 0.00 | 86 | 1017.6 |
| 20260508164022 | 57 | 48 | 0.0 | 4.0 | 0.00 | 0.00 | 0.00 | 86 | 1017.6 |
| 20260508163521 | 56 | 8 | 1.0 | 5.0 | 0.00 | 0.00 | 0.00 | 87 | 1017.7 |
| 20260508163022 | 56 | 20 | 1.0 | 4.0 | 0.00 | 0.00 | 0.00 | 87 | 1017.8 |
| 20260508162518 | 55 | 323 | 0.0 | 3.0 | 0.00 | 0.00 | 0.00 | 86 | 1017.8 |
| 20260508162017 | 55 | 323 | 0.0 | 4.0 | 0.00 | 0.00 | 0.00 | 87 | 1017.7 |
| 20260508161515 | 55 | 319 | 2.0 | 6.0 | 0.00 | 0.00 | 0.00 | 87 | 1017.7 |
| 20260508161015 | 55 | 321 | 2.0 | 6.0 | 0.00 | 0.00 | 0.00 | 87 | 1017.6 |
| 20260508160512 | 54 | 78 | 0.0 | 3.0 | 0.00 | 0.00 | 0.00 | 87 | 1017.6 |
| 20260508160058 | 54 | 78 | 0.0 | 3.0 | 0.00 | 0.00 | 0.00 | 87 | 1017.7 |
| 20260508155557 | 54 | 85 | 0.0 | 3.0 | 0.00 | 0.00 | 0.00 | 87 | 1017.7 |
| 20260508155055 | 54 | 85 | 0.0 | 4.0 | 0.00 | 0.00 | 0.00 | 87 | 1017.7 |
| 20260508154555 | 54 | 30 | 0.0 | 4.0 | 0.00 | 0.00 | 0.00 | 88 | 1017.7 |
| 20260508154053 | 54 | 11 | 1.0 | 5.0 | 0.00 | 0.00 | 0.00 | 88 | 1017.8 |
| 20260508153554 | 54 | 343 | 1.0 | 5.0 | 0.00 | 0.00 | 0.00 | 88 | 1017.8 |
| 20260508153057 | 54 | 114 | 0.0 | 2.0 | 0.00 | 0.00 | 0.00 | 88 | 1017.8 |
| 20260508152551 | 54 | 37 | 0.0 | 2.0 | 0.00 | 0.00 | 0.00 | 88 | 1017.7 |
| 20260508152051 | 54 | 15 | 0.0 | 4.0 | 0.00 | 0.00 | 0.00 | 88 | 1017.8 |
| 20260508151550 | 54 | 29 | 0.0 | 8.0 | 0.00 | 0.00 | 0.00 | 88 | 1017.7 |
| 20260508151049 | 54 | 20 | 1.0 | 8.0 | 0.00 | 0.00 | 0.00 | 88 | 1017.7 |
| 20260508150548 | 53 | 11 | 0.0 | 4.0 | 0.00 | 0.00 | 0.00 | 88 | 1017.6 |
| 20260508150043 | 53 | 50 | 0.0 | 4.0 | 0.00 | 0.00 | 0.00 | 88 | 1017.7 |
| 20260508145543 | 53 | 56 | 0.0 | 5.0 | 0.00 | 0.00 | 0.00 | 88 | 1017.7 |
| 20260508145039 | 53 | 33 | 1.0 | 5.0 | 0.00 | 0.00 | 0.00 | 88 | 1017.9 |
| 20260508144542 | 53 | 33 | 0.0 | 4.0 | 0.00 | 0.00 | 0.00 | 88 | 1017.8 |
| 20260508144038 | 53 | 35 | 0.0 | 4.0 | 0.00 | 0.00 | 0.00 | 88 | 1017.8 |
| 20260508143538 | 53 | 359 | 0.0 | 4.0 | 0.00 | 0.00 | 0.00 | 88 | 1017.9 |
| 20260508143036 | 53 | 21 | 0.0 | 3.0 | 0.00 | 0.00 | 0.00 | 88 | 1017.8 |
| 20260508142536 | 53 | 45 | 0.0 | 3.0 | 0.00 | 0.00 | 0.00 | 88 | 1017.8 |
| 20260508142135 | 53 | 45 | 0.0 | 3.0 | 0.00 | 0.00 | 0.00 | 88 | 1017.7 |
| 20260508141535 | 53 | 45 | 0.0 | 3.0 | 0.00 | 0.00 | 0.00 | 88 | 1017.7 |
| 20260508141034 | 53 | 48 | 0.0 | 3.0 | 0.00 | 0.00 | 0.00 | 88 | 1017.7 |
| 20260508140532 | 53 | 48 | 0.0 | 1.0 | 0.00 | 0.00 | 0.00 | 88 | 1017.7 |
| 20260508140026 | 53 | 48 | 0.0 | 4.0 | 0.00 | 0.00 | 0.00 | 88 | 1017.5 |
| 20260508135527 | 53 | 48 | 0.0 | 4.0 | 0.00 | 0.00 | 0.00 | 88 | 1017.5 |
| 20260508135025 | 53 | 33 | 0.0 | 6.0 | 0.00 | 0.00 | 0.00 | 88 | 1017.5 |
| 20260508134524 | 53 | 79 | 1.0 | 6.0 | 0.00 | 0.00 | 0.00 | 88 | 1017.5 |
| 20260508134023 | 53 | 103 | 1.0 | 6.0 | 0.00 | 0.00 | 0.00 | 88 | 1017.4 |
| 20260508133523 | 53 | 74 | 0.0 | 7.0 | 0.00 | 0.00 | 0.00 | 88 | 1017.4 |
| 20260508133022 | 53 | 71 | 0.0 | 7.0 | 0.00 | 0.00 | 0.00 | 88 | 1017.4 |
| 20260508132526 | 53 | 20 | 0.0 | 4.0 | 0.00 | 0.00 | 0.00 | 88 | 1017.4 |
| 20260508132021 | 53 | 45 | 0.0 | 4.0 | 0.00 | 0.00 | 0.00 | 88 | 1017.3 |
| 20260508131521 | 53 | 46 | 0.0 | 3.0 | 0.00 | 0.00 | 0.00 | 88 | 1017.3 |
| 20260508131020 | 53 | 46 | 0.0 | 4.0 | 0.00 | 0.00 | 0.00 | 88 | 1017.2 |